STARLINK-4712 (53798 NORAD) Tracking and Keplerian Element Data

This shows tracking and keplerian element data for the satellite.

Feedback or suggestion? Click here.




ElementValue
Catalog53798
NameSTARLINK-4712
Epoch Orbit1105
Epoch Day325.33334491
Epoch Year2022
RAAN280.3043
Inclination53.2169
Eccentricity0.0001352
Argument of Perigee56.0108
Mean Anonmoly337.8192
Mean Motion15.12581794
Decay Rate-0.01144301
L11 53798U 22111AB 22325.33334491 -.01144301 00000+0 -70378-1 0 9994
L22 53798 53.2169 280.3043 0001352 56.0108 337.8192 15.12581794 11054



Live tracking and technical data element details for STARLINK-4712 (NORAD 53798). STARLINK-4712 can be tracked NOW for your location showing map with azimuth and elevation plus other details from your city location.







IsCatalogInMostPopularTable: catalog: 53798, numindb: -1

Insert: records affected: 1


GetName: 53798 STARLINK-4712

Hit Count: inserted at: Mon, 28 Nov 2022 05:37:35 GMT